Погода в Волочаевском

Россия / Ростовская область     46°32′47″N   42°39′16″E
темп.,
°C
ветер,
м/с
пор.,
м/с
влажн.,
%
обл.,
%
осадки,
мм/ч
давл.,
гПа
погр.,
м
9 мая, вс
вс900:00+16юв6126843 0.0 1010274
03:00+14юв61064100 0.0 1009246
06:00+14ююв4771100 0.0 1009224
09:00+17св2269100 0.0 1009335
12:00+15зсз5588100 1.6 1009476
15:00+9сз81191100 6.5 1012558
18:00+8сз91486100 3.6 1016958
21:00+9зсз61189100 3.9 1017973
10 мая, пн
пн1000:00+8зсз71187100 0.1 1019689
03:00+7зсз61286100 0.1 1019457
06:00+6зсз6128323 0.0 1019537
09:00+10зсз8106655 0.1 10181297
12:00+10зсз8106672 0.4 10181339
15:00+10з10127599 0.8 10171218
18:00+8з71185100 0.4 10151265
21:00+8зюз81188100 1.4 10141117
11 мая, вт
вт1100:00+8юз101390100 2.1 10131148
03:00+8ююз111691100 6.3 10131248
06:00+8ююз121990100 4.4 10141330
09:00+9ююз81780100 7.0 10151383
12:00+12ю81475100 1.0 10181515
15:00+13ююз51070100 2.8 10191165
18:00+10сз5687100 1.3 1020175
21:00+9ссз368846 1.3 1021183
12 мая, ср
ср1200:00+7ссв5109167 0.0 1020204
03:00+7св489355 0.0 1019148
06:00+9в368432 0.0 1019141
09:00+15вюв576471 0.0 1019655
12:00+19юв575023 0.0 10191548
15:00+20юв564413 0.0 10181874
18:00+19вюв34576 0.0 1017122
21:00+14всв48640 0.0 1017109
13 мая, чт
чт1300:00+13в46620 0.0 101682
03:00+12в45640 0.0 101665
06:00+13в47700 0.0 1017154
09:00+19вюв57534 0.0 1017523
12:00+23юв674653 0.0 10161013
15:00+25юв5643100 0.0 10151217
18:00+23вюв485926 0.0 1015193
21:00+19в496495 0.0 1015121